[[{"header":{"parameterUnit":"m.s-1","parameterCategory":1,"la1":30.2991,"la2":30.254,"lo1":-89.0895,"lo2":-89.0444,"dy":0.0017,"dx":0.0017,"nx":28,"ny":28,"refTime":"2025-03-16T03:00:00:Z","depth":0,"parameterNumber":2,"parameterNumberName":"U-component_of_WINDS"},"data":[0,0,0,0,0,0,0,0,0,0,0,0,0,0,0,0,0,0,0,0,0,0,0,0,0,0,0,0,0,0,0,0,0,0,0,0,0,0,0,0,0,0,0,0,0,0,0,0,0,0,0,0,0,0,0,0,0,0,6.2607,6.2608,0,6.2734,6.2735,6.2737,6.2712,6.271,6.2708,6.2706,6.2835,6.2841,6.2846,0,0,0,0,0,0,0,0,0,0,0,0,0,6.2344,6.2349,6.2607,6.2608,6.261,6.2734,6.2736,6.2737,6.2713,6.271,6.2707,6.2705,6.2834,6.284,6.2847,0,0,0,0,0,0,0,0,0,0,0,0,0,6.2463,6.2351,6.2606,6.2613,6.2614,6.2733,6.2736,6.2738,6.2713,6.271,6.2706,6.2703,6.2831,6.284,6.2848,6.2968,0,0,6.2873,6.2877,0,0,0,0,0,0,0,0,6.2457,6.2473,6.261,6.2612,6.2615,6.2704,6.269,6.2815,6.2714,6.2676,6.2705,6.2702,6.2794,6.2806,6.2837,6.2975,6.298,6.2874,6.2879,6.2883,6.2885,0,0,0,0,0,0,0,6.2448,6.2467,6.2657,6.2612,6.2615,6.261,6.2623,6.2714,6.2753,6.2679,6.2677,6.2693,6.2795,6.2829,6.284,6.2982,6.2874,6.2881,6.2887,6.289,6.3229,6.3232,0,0,0,0,0,0,6.2438,6.2461,6.2653,6.2661,6.2526,6.2617,6.2632,6.2679,6.2752,6.276,6.2696,6.2691,6.2816,6.283,6.2844,6.2993,6.2883,6.2891,6.2895,6.3225,6.3229,6.3234,0,0,0,0,0,0,6.2432,6.2455,6.2648,6.2561,6.2585,6.2625,6.2678,6.2683,6.2717,6.2764,6.2771,6.2723,6.2814,6.2832,6.2939,6.2997,6.2894,6.2902,6.322,6.3226,6.3232,6.3289,0,0,0,0,0,0,6.2425,6.2454,6.2499,6.2562,6.2589,6.274,6.2682,6.2688,6.2732,6.2727,6.2792,6.28,6.2813,6.2926,6.2947,6.3006,6.2909,6.3215,6.3223,6.323,6.3282,6.3296,6.3308,0,0,0,0,0,6.2416,6.2509,6.2502,6.2525,6.2647,6.2743,6.2759,6.2772,6.2736,6.2783,6.2814,6.2797,6.2987,6.2937,6.296,6.3023,6.3211,6.322,6.3229,6.3276,6.3293,6.3308,0,0,0,0,0,0,6.2452,6.2518,6.251,6.2626,6.268,6.2739,6.2798,6.279,6.2854,6.2847,6.2861,6.2876,6.2984,6.3014,6.2958,6.3146,6.3094,6.3108,6.3122,6.3139,6.3151,6.3142,6.2916,0,0,0,0,0,6.2473,6.2545,6.2599,6.2697,6.2724,6.2757,6.2799,6.2805,6.286,6.2882,6.2921,6.2975,6.3048,6.3095,6.3163,6.3286,6.3301,6.3341,6.3354,6.3365,6.3377,6.3447,6.3466,6.3263,6.3263,6.3263,0,0,6.2518,6.2563,6.2608,6.2705,6.2747,6.2822,6.2775,6.2856,6.2912,6.2894,6.2998,6.3028,6.309,6.3206,6.3259,6.3234,6.3436,6.3376,6.3384,6.3391,6.3458,6.3477,6.3494,6.3269,6.3268,6.3267,0,0,6.264,6.268,6.2767,6.2811,6.2875,6.2897,6.2918,6.2979,6.2999,6.3103,6.3092,6.316,6.3283,6.3328,6.3367,6.3509,6.3497,6.3531,6.36,6.3668,6.3684,6.3698,6.3751,6.3769,6.3543,6.3543,6.3543,0,6.2687,6.28,6.2813,6.2896,6.294,6.2929,6.3018,6.306,6.3143,6.3174,6.3146,6.3303,6.3343,6.3471,6.3506,6.3537,6.3563,6.3524,6.368,6.3695,6.3708,6.3759,6.3778,6.3547,6.3547,6.3546,6.3546,0,6.2857,6.2936,6.2998,6.3081,6.3132,6.3218,6.3245,6.3295,6.3298,6.3323,6.343,6.3479,6.3559,6.3589,6.3592,6.3719,6.3702,6.3677,6.3625,6.3731,6.3779,6.3798,6.3553,6.3551,6.355,6.3549,0,0,6.3003,6.3094,6.3117,6.3155,6.3227,6.3288,6.3374,6.3453,6.3497,6.3555,6.3629,6.3735,6.3714,6.3758,6.3766,6.3826,6.3938,6.3794,6.3796,6.382,6.4084,6.4103,6.4125,6.393,6.3934,6.3937,6.4079,0,6.3132,6.3284,6.33,6.3437,6.3511,6.3502,6.3577,6.363,6.3656,6.3723,6.3752,6.3828,6.3793,6.382,6.3879,6.3912,6.3991,6.3902,6.4001,6.4004,6.3986,6.4149,6.4169,6.4301,6.4097,6.4101,6.4103,0,6.3303,6.3368,6.3512,6.3576,6.3608,6.3675,6.375,6.3814,6.3874,6.389,6.3941,6.3942,6.4032,6.3978,6.4103,6.4042,6.4084,6.4107,6.4112,6.4122,6.406,6.4166,6.4343,6.4363,6.4132,6.413,6.4128,0,6.3397,6.3521,6.3624,6.3657,6.3733,6.3782,6.3816,6.3873,6.392,6.3986,6.4017,6.4092,6.4134,6.4192,6.4214,6.4172,6.434,6.4286,6.4356,6.4356,6.4392,6.439,6.458,6.4417,6.4417,6.4417,6.4416,0,6.3541,6.363,6.3668,6.3731,6.3832,6.385,6.3949,6.398,6.4032,6.4102,6.4099,6.4165,6.4189,6.426,6.4278,6.4381,6.4399,6.4415,6.4418,6.4416,6.4414,6.4444,6.4436,6.4422,6.4421,6.442,6.4419,0,6.3663,6.3692,6.3805,6.3869,6.3887,6.3958,6.4014,6.4076,6.4102,6.4191,6.4213,6.4254,6.4338,6.4365,6.4465,6.4477,6.4598,6.4593,6.4578,6.4579,6.4648,6.4642,6.4865,6.4896,6.4711,6.4713,6.4715,0,6.3754,6.3822,6.3894,6.3942,6.3978,6.4054,6.4103,6.4123,6.4175,6.425,6.4304,6.4387,6.4454,6.4588,6.4627,6.4705,6.4703,6.4776,6.4714,6.4711,6.4706,6.4703,6.4711,6.4787,6.4789,6.4791,6.4792,0,6.3911,6.3923,6.3993,6.407,6.4129,6.419,6.4249,6.4288,6.4318,6.4376,6.4462,6.4514,6.4618,6.4701,6.4781,6.4816,6.4811,6.4811,6.4832,6.4831,6.482,6.4829,6.4611,6.4806,6.4805,6.4804,6.4803,6.4802,6.4022,6.4084,6.4145,6.4224,6.4271,6.4327,6.439,6.4424,6.4496,6.4583,6.459,6.4684,6.4745,6.4851,6.4892,6.4966,6.4945,6.4974,6.4982,6.499,6.4996,6.4807,6.498,6.4979,6.4979,6.4979,6.4979,0,6.4181,6.4221,6.4294,6.4378,6.4441,6.4429,6.4495,6.4549,6.4631,6.4688,6.4756,6.4856,6.4937,6.4983,6.5065,6.5115,6.5115,6.5136,6.5133,6.5142,6.5008,6.4983,6.5136,6.5136,6.5135,6.5135,6.5135,6.5135,6.4272,6.4376,6.4396,6.4524,6.4563,6.4655,6.4694,6.4746,6.4792,6.4904,6.4972,6.5002,6.5056,6.5142,6.5216,6.5228,6.5259,6.5283,6.5293,6.5167,6.5151,6.5136,6.5113,6.5289,6.529,6.5421,6.5422,6.5423]},{"header":{"parameterUnit":"m.s-1","parameterCategory":1,"la1":30.2991,"la2":30.254,"lo1":-89.0895,"lo2":-89.0444,"dy":0.0017,"dx":0.0017,"nx":28,"ny":28,"refTime":"2025-03-16T03:00:00:Z","depth":0,"parameterNumber":3,"parameterNumberName":"V-component_of_WINDS"},"data":[0,0,0,0,0,0,0,0,0,0,0,0,0,0,0,0,0,0,0,0,0,0,0,0,0,0,0,0,0,0,0,0,0,0,0,0,0,0,0,0,0,0,0,0,0,0,0,0,0,0,0,0,0,0,0,0,0,0,-3.7142,-3.7143,0,-3.7185,-3.7185,-3.7186,-3.7173,-3.7172,-3.7172,-3.7171,-3.7211,-3.7213,-3.7215,0,0,0,0,0,0,0,0,0,0,0,0,0,-3.7047,-3.7049,-3.7142,-3.7143,-3.7143,-3.7185,-3.7185,-3.7186,-3.7173,-3.7172,-3.7171,-3.717,-3.7211,-3.7213,-3.7215,0,0,0,0,0,0,0,0,0,0,0,0,0,-3.7089,-3.705,-3.7142,-3.7142,-3.7142,-3.7185,-3.7185,-3.7186,-3.7174,-3.7172,-3.7171,-3.717,-3.721,-3.7213,-3.7216,-3.7259,0,0,-3.7224,-3.7225,0,0,0,0,0,0,0,0,-3.7087,-3.7092,-3.7142,-3.7142,-3.7143,-3.7173,-3.7167,-3.7211,-3.7174,-3.7162,-3.7171,-3.7169,-3.7199,-3.7203,-3.7214,-3.7261,-3.7263,-3.7224,-3.7226,-3.7227,-3.7228,0,0,0,0,0,0,0,-3.7084,-3.7091,-3.7159,-3.7142,-3.7143,-3.7139,-3.7144,-3.7175,-3.7187,-3.7163,-3.7162,-3.7167,-3.7199,-3.7211,-3.7215,-3.7264,-3.7224,-3.7227,-3.7229,-3.723,-3.735,-3.7352,0,0,0,0,0,0,-3.7081,-3.7088,-3.7158,-3.716,-3.7111,-3.7142,-3.7147,-3.7164,-3.7187,-3.7189,-3.7168,-3.7167,-3.7207,-3.7211,-3.7216,-3.7269,-3.7227,-3.723,-3.7232,-3.7349,-3.735,-3.7352,0,0,0,0,0,0,-3.7079,-3.7087,-3.7156,-3.7124,-3.7133,-3.7145,-3.7164,-3.7166,-3.7177,-3.7191,-3.7193,-3.7178,-3.7206,-3.7212,-3.7249,-3.727,-3.7231,-3.7234,-3.7347,-3.7349,-3.7351,-3.7376,0,0,0,0,0,0,-3.7076,-3.7087,-3.7104,-3.7125,-3.7134,-3.7189,-3.7166,-3.7168,-3.7183,-3.7181,-3.7201,-3.7203,-3.7205,-3.7245,-3.7252,-3.7274,-3.7236,-3.7345,-3.7348,-3.7351,-3.7373,-3.7379,-3.7383,0,0,0,0,0,-3.7073,-3.7108,-3.7105,-3.7113,-3.7156,-3.719,-3.7196,-3.7199,-3.7185,-3.7202,-3.7211,-3.7202,-3.7267,-3.7249,-3.7257,-3.7279,-3.7344,-3.7347,-3.735,-3.7371,-3.7378,-3.7383,0,0,0,0,0,0,-3.7088,-3.7111,-3.7107,-3.715,-3.7169,-3.7188,-3.721,-3.7206,-3.7227,-3.7224,-3.7226,-3.7231,-3.7269,-3.7278,-3.7257,-3.7324,-3.7303,-3.7308,-3.7316,-3.7323,-3.7328,-3.7324,-3.7239,0,0,0,0,0,-3.7097,-3.7123,-3.7141,-3.7178,-3.7187,-3.7197,-3.7212,-3.7213,-3.7231,-3.7239,-3.725,-3.7268,-3.7292,-3.7308,-3.7331,-3.7375,-3.7379,-3.7394,-3.7399,-3.7404,-3.7408,-3.7432,-3.7439,-3.7363,-3.7363,-3.7363,0,0,-3.7114,-3.713,-3.7146,-3.7181,-3.7195,-3.7222,-3.7204,-3.7232,-3.7252,-3.7243,-3.7279,-3.7288,-3.7308,-3.7349,-3.7367,-3.7357,-3.743,-3.7408,-3.7411,-3.7413,-3.7436,-3.7443,-3.745,-3.7365,-3.7365,-3.7365,0,0,-3.716,-3.7175,-3.7207,-3.7222,-3.7244,-3.7251,-3.7259,-3.7279,-3.7286,-3.7322,-3.7316,-3.7339,-3.7381,-3.7395,-3.7408,-3.7461,-3.7454,-3.7468,-3.7495,-3.7518,-3.7524,-3.753,-3.7549,-3.7555,-3.7473,-3.7473,-3.7473,0,-3.7178,-3.722,-3.7224,-3.7254,-3.7269,-3.7264,-3.7296,-3.731,-3.7338,-3.7349,-3.7338,-3.7391,-3.7404,-3.7448,-3.7461,-3.7472,-3.7481,-3.7466,-3.7523,-3.7529,-3.7534,-3.7552,-3.7559,-3.7474,-3.7474,-3.7474,-3.7474,0,-3.7241,-3.727,-3.7293,-3.7323,-3.7341,-3.7372,-3.738,-3.7398,-3.7398,-3.7405,-3.7443,-3.7458,-3.7485,-3.7495,-3.7495,-3.754,-3.7533,-3.7523,-3.7502,-3.7542,-3.7559,-3.7566,-3.7477,-3.7476,-3.7476,-3.7475,0,0,-3.7297,-3.7329,-3.7337,-3.7351,-3.7376,-3.7398,-3.7429,-3.7456,-3.7471,-3.7491,-3.7517,-3.7553,-3.7544,-3.7559,-3.756,-3.7581,-3.7622,-3.7568,-3.7568,-3.7577,-3.7673,-3.768,-3.7688,-3.7618,-3.7619,-3.762,-3.7671,0,-3.7345,-3.74,-3.7405,-3.7455,-3.7481,-3.7477,-3.7504,-3.7522,-3.753,-3.7553,-3.7562,-3.7588,-3.7574,-3.7583,-3.7603,-3.7612,-3.7641,-3.7609,-3.7641,-3.7642,-3.7636,-3.7697,-3.7705,-3.7752,-3.7678,-3.7679,-3.768,0,-3.7408,-3.7431,-3.7484,-3.7506,-3.7517,-3.7542,-3.7567,-3.759,-3.761,-3.7615,-3.7632,-3.763,-3.7662,-3.7641,-3.7684,-3.7662,-3.7675,-3.7682,-3.7684,-3.7687,-3.7663,-3.7701,-3.7768,-3.7775,-3.769,-3.7689,-3.7689,0,-3.7443,-3.7488,-3.7525,-3.7537,-3.7563,-3.7581,-3.7592,-3.7612,-3.7628,-3.765,-3.7661,-3.7686,-3.77,-3.7719,-3.7724,-3.7709,-3.7767,-3.7747,-3.7772,-3.7771,-3.7784,-3.7783,-3.7853,-3.7793,-3.7793,-3.7793,-3.7792,0,-3.7496,-3.7528,-3.7541,-3.7564,-3.7601,-3.7606,-3.7641,-3.7652,-3.7669,-3.7694,-3.7691,-3.7714,-3.772,-3.7744,-3.7748,-3.7783,-3.7789,-3.7793,-3.7794,-3.7794,-3.7793,-3.7802,-3.7799,-3.7795,-3.7794,-3.7794,-3.7793,0,-3.7541,-3.7551,-3.7592,-3.7614,-3.7621,-3.7647,-3.7665,-3.7687,-3.7696,-3.7727,-3.7734,-3.7747,-3.7775,-3.7783,-3.7816,-3.7819,-3.786,-3.7858,-3.7854,-3.7854,-3.7878,-3.7876,-3.7956,-3.7967,-3.79,-3.7901,-3.7901,0,-3.7574,-3.7599,-3.7625,-3.7642,-3.7654,-3.7681,-3.7699,-3.7705,-3.7723,-3.7749,-3.7768,-3.7796,-3.7818,-3.7863,-3.7875,-3.7901,-3.7899,-3.7925,-3.7902,-3.7901,-3.7899,-3.7898,-3.79,-3.7929,-3.793,-3.7931,-3.7931,0,-3.7631,-3.7635,-3.7661,-3.7688,-3.7709,-3.7731,-3.7752,-3.7765,-3.7775,-3.7795,-3.7825,-3.7842,-3.7877,-3.7905,-3.7931,-3.7942,-3.7938,-3.7938,-3.7945,-3.7945,-3.7942,-3.7944,-3.7865,-3.7936,-3.7936,-3.7935,-3.7935,-3.7935,-3.7671,-3.7693,-3.7716,-3.7744,-3.7761,-3.7781,-3.7803,-3.7814,-3.784,-3.7869,-3.7871,-3.7903,-3.7923,-3.7958,-3.7971,-3.7996,-3.7988,-3.7998,-3.8,-3.8003,-3.8005,-3.7938,-3.8,-3.8,-3.8,-3.8,-3.8,0,-3.7728,-3.7743,-3.7769,-3.7799,-3.7822,-3.7817,-3.784,-3.7859,-3.7888,-3.7907,-3.7931,-3.7965,-3.7992,-3.8006,-3.8033,-3.805,-3.8049,-3.8057,-3.8056,-3.8058,-3.8011,-3.8002,-3.8058,-3.8058,-3.8058,-3.8058,-3.8058,-3.8058,-3.7761,-3.7799,-3.7806,-3.7852,-3.7866,-3.7898,-3.7912,-3.793,-3.7946,-3.7984,-3.8007,-3.8017,-3.8035,-3.8063,-3.8088,-3.8091,-3.8101,-3.811,-3.8113,-3.8068,-3.8062,-3.8056,-3.8048,-3.8112,-3.8113,-3.8159,-3.8159,-3.8159]}]]